When you browse on this site, cookies collect data to enhance your experience and personalize the content and advertising you see.
Visit our Privacy Policy to learn more. By continuing to use the site, you agree to this use of cookies and data.
  • In Austria
  • List of Countries
  • For 7 days
  • Water Temperature
  • Satellite Maps
  • Weather Map
  • News
  • Weather Widgets
  • user-avatar
    Login

    Hourly Weather Oran

    Today, 26 March, Tuesday

    Time Temperature Precipitation Wind Pressure Humidity
    00:00 +14°C° 0 mm 3 mps 751 mmHg 81%
    01:00 +14°C° 0 mm 3 mps 750 mmHg 81%
    02:00 +14°C° 0 mm 4 mps 750 mmHg 81%
    03:00 +14°C° 0 mm 4 mps 750 mmHg 82%
    04:00 +14°C° 0 mm 4 mps 750 mmHg 81%
    05:00 +14°C° 0 mm 4 mps 750 mmHg 80%
    06:00 +14°C° 0 mm 4 mps 749 mmHg 79%
    07:00 +16°C° 0 mm 5 mps 749 mmHg 71%
    08:00 +19°C° 0 mm 6 mps 750 mmHg 64%
    09:00 +20°C° 0 mm 6 mps 750 mmHg 56%
    10:00 +22°C° 0 mm 7 mps 749 mmHg 51%
    11:00 +23°C° 0 mm 7 mps 749 mmHg 45%
    12:00 +24°C° 0 mm 8 mps 749 mmHg 40%
    13:00 +24°C° 0 mm 9 mps 749 mmHg 43%
    14:00 +23°C° 0 mm 11 mps 749 mmHg 47%
    15:00 +22°C° 0 mm 12 mps 748 mmHg 51%
    16:00 +21°C° 0 mm 12 mps 748 mmHg 55%
    17:00 +18°C° 0 mm 12 mps 748 mmHg 59%
    18:00 +15°C° 0 mm 12 mps 748 mmHg 62%
    19:00 +15°C° 0.1 mm 12 mps 749 mmHg 60%
    20:00 +14°C° 0.1 mm 13 mps 750 mmHg 58%
    21:00 +13°C° 0.1 mm 13 mps 751 mmHg 56%
    22:00 +13°C° 0.1 mm 12 mps 751 mmHg 52%
    23:00 +13°C° 0.1 mm 12 mps 752 mmHg 47%

    Tomorrow, 27 March, Wednesday

    Time Temperature Precipitation Wind Pressure Humidity
    00:00 +13°C° 0.1 mm 12 mps 752 mmHg 43%
    01:00 +13°C° 0 mm 12 mps 752 mmHg 45%
    02:00 +12°C° 0 mm 11 mps 752 mmHg 48%
    03:00 +12°C° 0 mm 11 mps 752 mmHg 51%
    04:00 +12°C° 0 mm 11 mps 752 mmHg 54%
    05:00 +11°C° 0 mm 10 mps 752 mmHg 57%
    06:00 +11°C° 0 mm 10 mps 752 mmHg 59%
    07:00 +12°C° 0 mm 11 mps 752 mmHg 57%
    08:00 +12°C° 0 mm 12 mps 753 mmHg 54%
    09:00 +13°C° 0 mm 12 mps 753 mmHg 52%
    10:00 +14°C° 0 mm 12 mps 753 mmHg 50%
    11:00 +16°C° 0 mm 11 mps 754 mmHg 48%
    12:00 +17°C° 0 mm 11 mps 754 mmHg 45%
    13:00 +16°C° 0.1 mm 11 mps 754 mmHg 49%
    14:00 +16°C° 0.1 mm 11 mps 754 mmHg 52%
    15:00 +14°C° 0.1 mm 11 mps 754 mmHg 56%
    16:00 +14°C° 0.1 mm 10 mps 754 mmHg 58%
    17:00 +14°C° 0.1 mm 10 mps 755 mmHg 61%
    18:00 +13°C° 0.1 mm 9 mps 755 mmHg 63%
    19:00 +13°C° 0 mm 9 mps 756 mmHg 65%
    20:00 +12°C° 0 mm 8 mps 756 mmHg 66%
    21:00 +12°C° 0 mm 8 mps 757 mmHg 68%
    22:00 +11°C° 0 mm 7 mps 757 mmHg 69%
    23:00 +11°C° 0 mm 7 mps 757 mmHg 71%

    Day after tomorrow, 28 March, Thursday

    Time Temperature Precipitation Wind Pressure Humidity
    00:00 +11°C° 0 mm 6 mps 757 mmHg 73%
    01:00 +10°C° 0 mm 6 mps 757 mmHg 75%
    02:00 +10°C° 0 mm 5 mps 757 mmHg 77%
    03:00 +10°C° 0 mm 5 mps 757 mmHg 80%
    04:00 +9°C° 0 mm 5 mps 757 mmHg 80%
    05:00 +9°C° 0 mm 5 mps 757 mmHg 81%
    06:00 +9°C° 0 mm 5 mps 757 mmHg 81%
    07:00 +11°C° 0 mm 6 mps 757 mmHg 74%
    08:00 +13°C° 0 mm 6 mps 758 mmHg 67%
    09:00 +15°C° 0 mm 7 mps 758 mmHg 60%
    10:00 +16°C° 0 mm 7 mps 758 mmHg 57%
    11:00 +17°C° 0 mm 7 mps 758 mmHg 54%
    12:00 +17°C° 0 mm 7 mps 758 mmHg 50%
    13:00 +18°C° 0 mm 7 mps 757 mmHg 51%
    14:00 +18°C° 0 mm 8 mps 757 mmHg 52%
    15:00 +18°C° 0 mm 8 mps 756 mmHg 53%
    16:00 +17°C° 0 mm 8 mps 756 mmHg 59%
    17:00 +15°C° 0 mm 8 mps 756 mmHg 66%
    18:00 +13°C° 0 mm 8 mps 756 mmHg 72%
    19:00 +14°C° 0 mm 7 mps 757 mmHg 75%
    20:00 +13°C° 0 mm 6 mps 757 mmHg 78%
    21:00 +13°C° 0 mm 5 mps 758 mmHg 81%
    22:00 +13°C° 0 mm 5 mps 757 mmHg 82%
    23:00 +12°C° 0 mm 5 mps 757 mmHg 83%

    29 March, Friday

    Time Temperature Precipitation Wind Pressure Humidity
    00:00 +12°C° 0 mm 4 mps 757 mmHg 84%
    01:00 +12°C° 0 mm 4 mps 756 mmHg 85%
    02:00 +11°C° 0 mm 4 mps 756 mmHg 85%
    03:00 +11°C° 0 mm 3 mps 756 mmHg 86%
    04:00 +12°C° 0.1 mm 4 mps 756 mmHg 84%
    05:00 +12°C° 0.1 mm 4 mps 756 mmHg 82%
    06:00 +13°C° 0.1 mm 5 mps 756 mmHg 80%
    07:00 +14°C° 0.2 mm 5 mps 756 mmHg 73%
    08:00 +15°C° 0.2 mm 5 mps 756 mmHg 67%
    09:00 +16°C° 0.2 mm 5 mps 756 mmHg 61%
    10:00 +19°C° 0.2 mm 5 mps 756 mmHg 56%
    11:00 +21°C° 0.2 mm 5 mps 756 mmHg 51%
    12:00 +22°C° 0.2 mm 5 mps 756 mmHg 46%
    13:00 +22°C° 1.1 mm 6 mps 755 mmHg 48%
    14:00 +22°C° 1.1 mm 7 mps 754 mmHg 51%
    15:00 +22°C° 1.1 mm 8 mps 754 mmHg 54%
    16:00 +20°C° 0.9 mm 7 mps 754 mmHg 61%
    17:00 +19°C° 0.9 mm 6 mps 754 mmHg 69%
    18:00 +16°C° 0.9 mm 5 mps 754 mmHg 76%
    19:00 +16°C° 0.3 mm 5 mps 754 mmHg 80%
    20:00 +15°C° 0.3 mm 4 mps 754 mmHg 83%
    21:00 +14°C° 0.3 mm 3 mps 755 mmHg 86%
    22:00 +14°C° 0.4 mm 3 mps 755 mmHg 88%
    23:00 +15°C° 0.4 mm 2 mps 755 mmHg 89%

    30 March, Saturday

    Time Temperature Precipitation Wind Pressure Humidity
    00:00 +15°C° 0.4 mm 1 mps 755 mmHg 91%
    01:00 +15°C° 0.3 mm 1 mps 754 mmHg 91%
    02:00 +15°C° 0.3 mm 1 mps 754 mmHg 91%
    03:00 +15°C° 0.3 mm 1 mps 754 mmHg 91%
    04:00 +15°C° 0.1 mm 1 mps 753 mmHg 88%
    05:00 +15°C° 0.1 mm 1 mps 753 mmHg 85%
    06:00 +15°C° 0.1 mm 1 mps 753 mmHg 82%
    07:00 +17°C° 0.1 mm 2 mps 753 mmHg 70%
    08:00 +18°C° 0.1 mm 3 mps 753 mmHg 58%
    09:00 +20°C° 0.1 mm 4 mps 753 mmHg 47%
    10:00 +22°C° 0 mm 4 mps 753 mmHg 41%
    11:00 +23°C° 0 mm 5 mps 753 mmHg 36%
    12:00 +24°C° 0 mm 6 mps 753 mmHg 30%
    13:00 +24°C° 0 mm 6 mps 752 mmHg 32%
    14:00 +25°C° 0 mm 5 mps 752 mmHg 33%
    15:00 +25°C° 0 mm 4 mps 751 mmHg 34%
    16:00 +23°C° 0 mm 4 mps 751 mmHg 39%
    17:00 +22°C° 0 mm 4 mps 751 mmHg 43%
    18:00 +21°C° 0 mm 5 mps 750 mmHg 47%
    19:00 +20°C° 0 mm 5 mps 750 mmHg 49%
    20:00 +19°C° 0 mm 5 mps 751 mmHg 50%
    21:00 +17°C° 0 mm 6 mps 751 mmHg 52%
    22:00 +16°C° 0 mm 6 mps 750 mmHg 53%
    23:00 +16°C° 0 mm 5 mps 750 mmHg 54%

    31 March, Sunday

    Time Temperature Precipitation Wind Pressure Humidity
    00:00 +15°C° 0 mm 5 mps 749 mmHg 54%
    01:00 +15°C° 0 mm 4 mps 749 mmHg 55%
    02:00 +15°C° 0 mm 4 mps 748 mmHg 56%
    03:00 +15°C° 0 mm 4 mps 748 mmHg 56%
    04:00 +15°C° 0.1 mm 4 mps 748 mmHg 59%
    05:00 +16°C° 0.1 mm 3 mps 747 mmHg 61%
    06:00 +14°C° 0.1 mm 3 mps 747 mmHg 64%
    07:00 +17°C° 0.1 mm 3 mps 748 mmHg 59%
    08:00 +18°C° 0.1 mm 3 mps 748 mmHg 55%
    09:00 +20°C° 0.1 mm 2 mps 748 mmHg 50%
    10:00 +21°C° 0.1 mm 2 mps 748 mmHg 48%
    11:00 +22°C° 0.1 mm 3 mps 748 mmHg 46%
    12:00 +24°C° 0.1 mm 3 mps 748 mmHg 44%
    13:00 +23°C° 0 mm 4 mps 748 mmHg 44%
    14:00 +22°C° 0 mm 4 mps 748 mmHg 45%
    15:00 +22°C° 0 mm 5 mps 748 mmHg 46%
    16:00 +21°C° 0 mm 4 mps 748 mmHg 52%
    17:00 +20°C° 0 mm 4 mps 748 mmHg 57%
    18:00 +19°C° 0 mm 4 mps 749 mmHg 63%
    19:00 +18°C° 0 mm 4 mps 749 mmHg 69%
    20:00 +17°C° 0 mm 3 mps 750 mmHg 74%
    21:00 +16°C° 0 mm 3 mps 750 mmHg 80%
    22:00 +14°C° 0 mm 3 mps 750 mmHg 82%
    23:00 +15°C° 0 mm 2 mps 750 mmHg 85%
    Show more